Miscellaneous Local Product
Issued by NWS North Platte, NE

Home | Current Version | Previous Version | Text Only | Print | Product List | Glossary On
Versions: 1 2 3 4 5 6 7 8 9 10 11 12 13 14 15 16 17 18 19 20 21 22 23 24 25 26 27 28 29 30 31 32 33 34 35 36 37 38 39 40 41 42 43 44 45 46 47 48 49 50
000
AXUS43 KLBF 270110
MISLBF


WESTERN AND NORTH CENTRAL NEBRASKA HOURLY WEATHER ROUNDUP
NATIONAL WEATHER SERVICE NORTH PLATTE NE
800 PM CDT SAT JUL 26 2014

***STATIONS NOT REPORTING VARIABLES SUCH AS SKY/WEATHER OR
PRESSURE ARE PROVIDED BY THE NEBRASKA DEPARTMENT OF
ROADS...RAWS...AND APRS NETWORKS...AND ARE NOT UNDER
NATIONAL WEATHER SERVICE QUALITY CONTROL***

...OBSERVATIONS IN AND NEAR THE EASTERN PANHANDLE OF NEBRASKA...

CITY           SKY/WX    TMP DP  RH WIND       PRES   REMARKS
PINE RIDGE     SUNNY     79  52  38 NE7       30.09R
CHADRON        SUNNY     83  45  26 E13       30.08R
ALLIANCE       SUNNY     83  44  25 E10       30.11R
SIDNEY         MOSUNNY   84  62  47 SE16      30.13R
WHITECLAY        N/A     80  47  31 NE3         N/A
RUSHVILLE        N/A     85  35  17 NE15        N/A
GORDON           N/A     84  47  26 N9          N/A
CRESCENT LAKE    N/A     82  44  26 NE9         N/A
LISCO            N/A     89  41  18 E10         N/A
$$

...OBSERVATIONS IN NORTH CENTRAL NEBRASKA...

CITY           SKY/WX    TMP DP  RH WIND       PRES   REMARKS
VALENTINE      SUNNY     85  45  24 N7        30.03R
THEDFORD       SUNNY     81  62  53 N9        30.05S
AINSWORTH      SUNNY     80  59  49 N7        30.03R
O`NEILL        CLEAR     82  61  48 N6        29.97R
ORD            CLEAR     81  65  58 N10       29.96R
BROKEN BOW     CLEAR     80  63  55 N9        30.01R
BROWNLEE         N/A     87  53  31 N8          N/A
SPRINGVIEW       N/A     84  52  32 MISG        N/A
DUNNING          N/A     82  63  53 NE7         N/A
ROSE             N/A     84  68  57 CALM        N/A
NEWPORT          N/A     82  63  51 NW5         N/A
SARGENT          N/A     83  62  48 CALM        N/A
COMSTOCK         N/A     87  71  59 E5          N/A  HX  93
CHAMBERS         N/A     89  61  39 CALM        N/A
$$

...OBSERVATIONS IN SOUTHWEST NEBRASKA AND FAR NORTHEAST COLORADO...

CITY           SKY/WX    TMP DP  RH WIND       PRES   REMARKS
WRAY             N/A     84  64  50 NE16      30.08R
HOLYOKE        FAIR      81  64  57 E7        30.10R
IMPERIAL       LGT RAIN  81  65  58 NE8       30.07R
OGALLALA       SUNNY     80  62  52 NE9       30.08R
NORTH PLATTE   SUNNY     81  62  52 NE9       30.03R
MCCOOK         PTSUNNY   85  67  54 NE9       30.00R
LEXINGTON      MOCLDY    83  70  64 N6        29.99R
SUTHERLAND       N/A     85  69  57 E7          N/A
BRADY            N/A     82  63  51 CALM        N/A
GOTHENBURG       N/A     83  62  48 N9          N/A
CALLAWAY         N/A     81  67  61 NE9         N/A
$$

...SOME WEATHER OBSERVATIONS FROM AROUND THE REGION...

CITY           SKY/WX    TMP DP  RH WIND       PRES   REMARKS
DENVER         CLOUDY    77  52  41 S13G23    30.24R
LARAMIE        MOSUNNY   81  25  12 N12       30.28S
CHEYENNE       SUNNY     78  48  34 S13G25    30.24R
SCOTTSBLUFF    MOSUNNY   85  55  35 E10       30.10R
RAPID CITY     SUNNY     78  46  32 N14       30.08R
PIERRE         SUNNY     82  48  30 NW18      29.95S
WINNER         FAIR      86  48  26 NW9       29.98R
SIOUX FALLS    CLEAR     80  66  62 W5        29.89S
OMAHA          MOCLDY    84  73  69 NE8       29.85R HX  90
GRAND ISLAND   PTCLDY    85  70  60 N7        29.92R
KANSAS CITY    PTCLDY    85  77  77 S6        29.79F HX  95
WICHITA        PTCLDY    96  60  30 S9        29.82R HX  96
HAYS           PTCLDY    93  64  38 NE10      29.89R HX  95
LIBERAL        CLEAR    100  54  20 S10       29.90S HX  98
GOODLAND       PTSUNNY   88  56  33 E13       30.04S
$$



USA.gov is the U.S. government's official web portal to all federal, state and local government web resources and services.